Location: Unspecified
(52.4292°N, 19.3359°E)
Time: 10:24:20
(UTC+02:00)

Tiros 1 - Pass Details

Date: 18 May 2024
Orbit: 624 x 657 km, 48.4° (Epoch: 22 June)

Event Time Altitude Azimuth Distance (km) Brightness Sun altitude
Rises 17:21:40 0° 267° (W) 2,981 11.9 27.3°
Reaches altitude 10° 17:24:04 10° 262° (W) 2,067 11.5 26.9°
Maximum altitude 17:28:41 51° 188° (S) 826 8.1 26.2°
Drops below altitude 10° 17:33:16 10° 113° (ESE) 2,053 9.3 25.5°
Sets 17:35:38 0° 108° (ESE) 2,957 10.0 25.1°
